SCP
0 0 0 0 0 0 0 0 0 0 0 0 0 0 0 0 -0 0 0 0 0 0 0 0 0 0 0 0 0 0 0 0 0 0 0 0 0 0 0 0 0 0 0 0 0 0 0 0 0 0 0 0 -0 -0
0 0 0 0 0 0 0 0 0 0 0 0 0 0 -0 0 0 -0 0 0 0 0 0 0 0 0 0 0 0 0 0 0 0 0 0 0 0 0 0 0 0 0 0 0 0 0 0 0 0 0 0 0 -0 0
0 0 0 0 0 0 0 0 0 0 0 0 0 0 0 -0 0 0 0 0 0 0 0 0 0 0 0 0 0 0 0 0 0 0 0 0 0 0 0 0 0 0 0 0 0 0 0 0 0 0 0 0 0 0
0 0 0 -0 0 0 0 0 0 0 0 0 0 0 0 0 0 0 0 0 0 0 0 0 0 0 0 0 0 0 0 0 0 0 0 0 0 0 0 0 0 0 0 0 0 0 0 0 0 0 0 0 0 0
0 0 0 -0 0 0 0 -0 0 0 0 0 0 0 0 0 0 0 0 -0 0 0 0 0 0 0 0 0 0 0 0 0 0 0 0 0 0 0 0 0 0 0 0 0 0 0 0 0 0 0 0 0 0 0
0 0 0 -0 0 0 0 0 0 0 0 0 0 0 0 0 0 0 0 0 0 0 0 0 0 0 0 0 0 0 0 0 0 0 0 0 0 0 0 0 0 0 0 0 0 0 0 0 0 0 0 -0 0 0
-0 -0 0 0 -0 -0 0 -0 -0 -0 0 0 0 0 0 0 0 0 0 0 0 0 0 0 0 0 0 0 0 0 0 0 0 0 0 0 0 0 0 0 0 0 0 0 0 0 0 0 0 0 0 0 -0 -0
-0 -0 -0 0 -0 -0 -0 0 0 0 -0 0 0 0 0 0 0 0 0 0 0 0 0 0 0 0 0 0 0 0 0 0 0 0 0 0 0 0 0 0 0 0 0 0 0 0 0 0 0 0 0 0 -0 -0
-0 -0 -0 -0 -0 -0 -0 -0 -0 -0 -0 0 0 0 0 0 0 0 0 0 0 0 0 0 0 0 0 0 0 0 0 0 0 0 0 0 0 0 0 0 0 0 0 0 0 0 0 0 0 0 0 0 0 -0
-0 -0 -0 -0 -0 -0 -0 -0 -0 -0 -0 -0 -0 0 0 0 0 0 0 0 0 0 0 0 0 0 0 0 0 0 0 0 0 0 0 0 0 0 0 0 0 0 0 0 0 0 0 0 0 0 0 0 0 0
-0 -0 -0 -0 -0 -0 -0 0 0 -0 -0 0 0 0 -0 0 0 0 0 0 0 0 0 0 0 0 0 0 0 0 0 0 0 0 0 0 0 0 0 0 0 0 0 0 0 0 0 0 0 0 0 0 0 0
-0 -0 -0 -0 -0 -0 -0 -0 -0 -0 0 0 0 0 0 0 0 0 0 0 0 0 0 0 0 0 0 0 0 0 0 0 0 0 0 0 -0 -0 0 0 0 0 0 0 0 0 0 0 0 0 0 0 0 0
-0 -0 -0 -0 -0 -0 -0 -0 -0 0 0 0 0 0 0 0 0 0 0 0 0 0 0 0 0 0 0 0 0 0 0 0 0 0 0 -0 -0 0 0 0 0 0 0 0 0 0 0 0 0 0 0 0 0 0
-0 -0 -0 -0 -0 -0 -0 0 0 0 0 0 0 0 0 0 0 0 0 0 0 0 0 0 0 0 0 0 0 0 0 0 0 0 -0 0 -0 -0 0 0 0 0 0 0 0 0 0 0 0 0 0 0 0 0
-0 -0 0 0 -0 -0 0 0 0 0 0 0 0 0 0 0 0 0 0 0 0 0 0 0 0 0 0 0 0 0 0 0 0 -0 -0 0 0 -0 0 -0 0 0 0 0 -0 0 0 0 0 0 0 0 0 0
-0 -0 0 -0 -0 0 -0 0 0 0 0 0 0 0 0 -0 -0 -0 -0 -0 0 0 0 0 0 0 0 0 0 0 0 0 0 0 0 0 -0 -0 0 0 -0 0 0 0 0 -0 -0 -0 0 0 0 0 0 0
-0 0 -0 -0 -0 -0 -0 0 0 0 0 0 0 0 -0 -0 -0 -0 -0 -0 0 0 0 0 0 0 0 0 0 0 0 0 0 0 0 -0 -0 0 -0 0 -0 0 0 0 0 0 -0 0 0 -0 0 0 0 0
-0 -0 -0 0 -0 0 0 0 0 0 0 0 -0 0 -0 -0 -0 -0 -0 0 0 0 0 0 0 0 0 0 0 0 0 0 0 -0 0 0 0 -0 -0 -0 -0 -0 -0 -0 0 0 -0 -0 -0 -0 -0 -0 -0 0
-0 0 -0 -0 -0 0 0 0 0 0 0 0 0 0 0 0 0 0 0 -0 0 0 0 0 0 0 0 0 0 0 0 -0 -0 0 -0 0 0 -0 -0 -0 -0 -0 -0 -0 -0 -0 0 -0 -0 -0 -0 -0 0 0
-0 -0 -0 0 0 0 0 0 0 0 0 0 0 0 0 0 0 0 0 0 0 0 0 0 0 0 0 0 0 0 0 0 0 -0 0 0 0 0 0 0 -0 0 -0 -0 -0 -0 -0 -0 -0 -0 0 0 0 0
0 -0 -0 0 0 0 0 0 0 0 0 0 0 0 0 0 0 0 0 0 0 0 0 0 0 0 0 0 0 0 0 0 0 0 -0 0 0 0 0 0 0 -0 -0 -0 -0 -0 -0 -0 -0 0 0 0 0 0
0 0 0 0 0 0 0 0 0 0 0 0 0 0 0 0 0 0 0 0 0 0 0 0 0 0 0 0 0 0 0 0 0 0 0 -0 -0 0 -0 -0 -0 0 -0 -0 -0 -0 0 0 0 0 0 0 0 0
0 0 0 0 0 0 0 0 0 0 0 0 0 0 0 0 0 0 0 0 0 0 0 0 0 0 0 0 0 0 0 0 0 0 0 0 -0 -0 -0 -0 -0 0 0 -0 -0 -0 0 0 0 0 0 0 0 0
0 0 0 0 0 0 0 0 0 0 0 0 0 0 0 0 0 0 0 0 0 0 0 0 0 0 0 0 0 0 0 0 0 0 0 0 0 0 0 -0 -0 -0 -0 -0 -0 0 0 0 0 0 0 0 0 0
0 0 0 0 0 0 0 0 0 0 0 0 0 0 0 0 0 0 0 0 0 0 0 0 0 0 0 0 0 0 0 0 0 0 0 0 0 0 0 -0 -0 -0 -0 0 0 0 0 0 0 0 0 0 0 -0
0 0 0 0 0 0 0 0 0 0 0 0 0 0 0 0 0 0 0 0 0 0 0 0 0 0 0 0 0 0 0 0 0 0 0 0 0 0 0 0 0 0 0 0 0 0 0 0 0 0 0 0 0 0
0 0 0 0 0 0 0 0 0 0 0 0 0 0 0 0 0 0 0 0 0 0 0 0 0 0 0 0 0 0 0 0 0 0 0 0 0 0 0 0 0 0 0 0 0 0 0 0 0 0 0 0 0 0
0 0 0 0 0 0 0 0 0 0 0 0 0 0 0 0 0 0 0 0 0 0 0 0 0 0 0 0 0 0 0 0 0 0 0 0 0 0 0 0 0 0 0 0 0 0 0 0 0 0 0 0 0 0
0 0 0 0 0 0 0 0 0 0 0 0 0 0 0 0 0 0 0 0 0 0 0 0 0 0 0 0 0 0 0 0 0 0 0 0 0 0 0 0 0 0 0 0 0 0 0 0 0 0 0 0 0 0
0 0 0 0 0 0 0 0 0 0 0 0 0 0 0 0 0 0 0 0 0 0 0 0 0 0 0 0 0 0 0 -0 -0 0 0 0 0 0 0 0 0 0 0 0 0 0 0 0 0 0 0 0 0 0
-0 0 0 0 0 0 0 0 0 0 0 0 0 0 0 0 0 0 0 0 0 0 0 0 0 0 0 0 0 0 0 0 0 0 0 0 0 0 0 0 0 0 0 0 0 0 0 0 0 0 0 0 0 0
0 0 0 0 0 0 0 0 0 0 0 0 0 0 0 0 0 0 0 0 0 0 0 0 0 0 0 0 0 0 0 0 0 0 0 0 0 0 0 0 0 0 0 0 0 0 0 0 0 0 0 0 0 0
0 0 0 0 0 0 0 0 0 0 0 0 0 0 0 0 0 0 0 0 0 0 0 0 0 0 0 0 0 0 0 0 0 0 0 0 0 0 0 0 0 0 0 0 0 0 0 0 0 0 0 0 0 0
Wind_Speed_500mb
60 60 60 59 61 64 64 65 65 63 61 57 60 66 69 77 74 77 89 89 90 52 70 27 35 51 25 43 20 10 13 17 15 15 8 10 11 16 10 10 20 21 21 14 15 15 28 29 20 17 8 12 11 26
60 58 59 60 62 59 61 64 65 65 62 58 62 69 68 71 76 72 91 86 98 66 28 51 88 87 70 52 36 31 22 11 30 13 14 7 9 6 18 26 7 15 24 14 24 17 14 35 11 41 22 20 40 50
64 63 65 65 63 65 65 65 65 66 67 60 63 64 62 65 71 71 76 69 92 78 56 59 74 53 45 49 63 35 28 41 36 31 11 7 15 8 22 24 9 16 16 18 17 40 38 34 43 55 60 72 83 72
69 64 63 68 65 63 64 62 60 57 56 56 59 60 60 57 60 60 70 65 94 38 20 27 47 65 71 70 64 74 75 55 43 41 37 20 21 28 24 19 23 22 29 23 18 40 35 48 52 56 67 70 62 72
66 67 70 63 63 61 62 57 51 50 53 53 56 53 59 52 53 69 77 74 89 76 12 20 35 44 49 48 51 43 57 67 60 37 17 20 21 21 20 12 30 43 32 21 29 32 33 40 51 55 40 54 63 68
63 66 66 65 60 58 57 55 47 47 42 40 45 39 35 32 36 43 52 76 102 97 21 9 17 27 49 40 45 53 53 60 64 49 29 54 62 21 12 22 40 72 71 69 48 60 45 55 63 67 69 88 81 75
67 67 64 63 62 58 56 54 53 45 42 35 31 32 33 32 35 19 9 21 63 94 29 6 6 18 35 38 44 45 57 42 45 45 33 59 34 50 34 46 45 55 55 58 74 74 51 73 70 77 78 96 96 96
68 67 65 58 56 55 56 55 51 45 45 41 38 36 35 32 35 31 18 17 50 51 11 5 6 2 29 17 16 36 29 39 34 33 33 23 45 40 32 41 67 80 84 76 83 89 86 95 85 85 91 103 110 101
67 67 65 61 57 53 50 52 49 44 40 41 41 40 35 40 32 50 28 32 36 24 8 10 11 5 21 19 21 18 25 12 22 15 20 18 13 20 20 45 71 57 66 73 79 85 85 87 101 100 99 100 95 106
70 74 68 62 59 58 57 56 52 48 42 37 33 21 17 28 41 15 20 20 24 25 23 8 16 9 26 20 14 7 17 10 9 13 14 12 27 63 74 76 75 78 85 77 70 71 75 78 88 101 100 91 100 101
79 75 70 67 65 62 60 60 59 53 43 43 25 26 17 32 30 19 13 15 14 11 19 27 44 15 28 10 11 17 3 3 7 11 12 12 20 31 78 89 95 95 95 101 106 100 93 86 83 80 86 99 105 107
78 71 62 59 54 54 54 57 55 65 64 49 27 20 35 19 11 9 8 5 8 12 11 12 27 44 18 17 6 10 9 4 13 3 4 7 33 68 73 79 85 93 98 100 103 99 103 111 113 103 98 106 97 95
50 50 55 56 57 54 54 51 47 45 74 47 18 21 16 14 11 17 16 8 7 9 21 19 9 23 14 20 5 9 16 12 9 7 9 28 25 39 59 73 88 91 98 78 81 90 96 103 104 103 104 102 100 98
54 58 56 41 41 44 44 41 40 41 67 17 14 12 10 10 9 10 13 16 14 22 45 34 14 8 12 11 6 10 6 4 7 10 32 6 19 34 41 63 77 83 82 72 66 66 81 80 78 84 91 93 93 94
66 49 31 41 61 71 56 39 39 71 13 11 12 10 10 7 7 6 15 12 27 32 48 16 10 11 6 8 7 6 4 11 18 33 16 5 29 36 31 30 33 39 47 55 59 64 63 59 64 70 67 71 75 78
56 22 33 46 54 16 39 58 82 37 11 15 9 5 3 4 3 6 18 18 32 44 37 16 8 9 10 7 10 16 11 11 9 3 13 26 37 41 41 48 38 34 31 34 38 45 51 49 48 53 57 64 69 72
46 28 24 29 35 49 65 61 25 9 7 7 2 7 9 6 10 6 8 14 34 42 11 6 14 15 6 7 8 10 10 2 6 27 29 30 41 44 47 48 43 43 45 42 39 39 39 40 42 49 59 56 53 59
37 37 5 6 12 20 20 11 9 6 5 5 5 4 9 5 4 7 8 13 27 17 18 8 14 10 10 12 7 2 7 22 21 26 36 39 31 28 44 54 52 49 51 50 45 41 36 37 39 40 42 38 37 37
32 38 14 7 4 6 6 8 6 5 1 1 2 3 2 3 11 19 27 23 31 12 11 11 4 2 3 5 6 14 21 22 27 49 49 31 27 45 48 47 46 46 51 50 44 41 37 33 37 33 36 34 30 26
24 25 20 17 9 2 4 5 5 2 3 0 1 0 1 2 5 17 17 14 14 10 12 9 7 7 10 16 20 20 22 31 40 45 42 37 42 43 41 46 50 49 48 46 39 35 35 29 25 30 31 30 30 25
21 13 18 19 6 6 8 7 5 4 4 1 3 2 3 11 12 14 16 17 18 10 6 11 16 28 14 12 10 19 24 28 29 26 40 57 47 39 41 44 48 48 47 46 47 43 38 36 37 32 29 25 28 27
12 7 1 8 7 6 7 11 4 7 4 1 4 6 6 4 5 9 9 23 11 11 13 23 32 24 16 21 23 22 22 17 16 21 34 41 43 44 45 43 47 51 49 45 45 47 45 40 35 29 27 22 26 26
4 1 4 10 5 7 3 14 2 12 4 5 2 4 5 4 7 7 7 10 9 21 25 30 23 13 12 19 13 10 16 16 18 23 34 45 43 39 38 36 37 45 51 46 41 43 42 38 34 31 26 24 19 21
8 10 17 15 26 7 15 15 10 12 9 8 7 5 6 5 10 7 6 6 4 22 27 28 26 21 20 23 25 22 25 22 18 17 31 42 49 48 41 35 33 40 44 44 42 41 40 38 36 31 26 22 19 18
7 24 18 15 23 16 14 13 12 10 7 7 7 7 6 12 5 6 3 6 13 26 31 28 27 26 27 34 38 35 34 31 27 26 28 37 44 52 51 45 38 46 47 49 49 47 44 40 38 35 30 24 20 17
17 19 14 8 10 9 6 10 12 7 5 10 6 12 11 4 7 3 0 12 14 20 29 30 31 30 27 28 38 47 46 33 24 24 26 28 36 51 61 59 61 57 53 52 53 52 47 45 41 38 32 25 19 14
13 9 16 18 12 13 7 7 5 5 8 9 7 10 7 7 4 1 3 15 16 19 20 20 21 22 27 24 26 34 39 34 24 18 24 25 25 37 56 57 60 58 56 52 49 48 49 49 46 41 35 25 19 14
8 14 10 34 14 10 5 5 7 8 7 16 9 7 3 2 1 3 3 13 17 18 19 17 17 18 21 19 25 30 34 35 22 13 9 24 24 38 50 49 51 52 52 52 51 47 42 41 42 39 34 26 20 15
9 31 23 8 8 7 6 4 3 7 17 9 1 5 3 2 3 2 4 9 15 17 17 17 16 13 14 19 23 23 32 43 44 44 46 51 55 52 50 50 54 56 57 56 51 46 40 36 36 35 30 23 16 12
14 33 11 7 4 5 2 8 17 40 26 14 12 10 8 4 1 5 8 11 16 23 26 29 30 29 29 31 29 23 29 41 45 49 51 53 55 56 56 54 54 54 55 59 59 56 48 43 33 31 32 30 22 13
18 14 7 4 8 8 18 47 38 29 14 5 16 15 9 4 6 3 9 16 21 24 28 32 31 31 35 39 36 33 34 38 40 39 42 44 46 49 51 52 54 56 57 55 54 53 55 54 51 46 39 34 29 21
14 11 6 6 11 17 31 25 17 8 5 3 5 6 5 7 6 6 18 27 35 40 45 46 46 39 35 40 30 35 46 47 46 45 46 47 47 48 48 49 51 54 55 53 51 49 47 47 48 47 43 37 32 28
10 10 8 11 12 12 17 30 14 18 7 5 4 2 5 4 7 13 19 7 23 41 51 56 58 53 44 47 37 40 48 49 49 48 47 47 48 49 49 48 50 51 52 53 51 50 48 45 43 41 40 35 30 27
Wind_Direction_500mb
297 287 290 294 296 294 287 284 277 272 263 260 260 260 257 248 244 245 225 225 215 228 243 223 219 228 211 215 221 151 169 189 179 219 220 197 222 207 203 162 170 170 176 198 213 222 259 191 136 207 238 211 304 320
298 291 290 291 292 295 292 287 281 270 265 264 266 263 258 253 241 243 249 225 218 212 239 231 247 249 245 239 248 209 226 167 206 206 207 217 212 181 236 245 142 223 215 212 200 218 245 194 225 217 276 277 299 297
296 292 289 287 289 289 293 292 280 270 263 264 266 260 259 257 240 239 241 233 201 213 235 241 237 230 231 232 240 238 241 232 237 235 252 224 236 179 233 240 209 237 226 226 207 243 244 244 251 253 269 269 283 284
293 291 290 287 286 286 288 292 279 274 264 262 261 261 258 252 249 242 241 242 206 206 219 241 230 230 241 241 245 244 246 249 248 249 237 237 243 199 248 259 218 221 168 219 246 255 270 267 257 261 265 282 284 292
292 290 287 287 286 284 286 291 280 272 271 260 260 256 255 246 247 239 237 244 219 200 197 221 222 220 226 228 234 236 237 239 243 242 242 250 244 244 239 242 235 221 229 222 242 250 240 256 265 262 271 289 294 296
299 295 294 288 285 281 280 282 277 275 274 259 251 247 251 253 263 263 238 242 236 209 217 189 203 214 218 227 238 238 238 232 233 245 246 245 243 230 241 250 246 239 240 246 249 261 252 261 270 267 280 280 293 298
301 298 295 290 284 280 275 277 282 268 268 261 252 251 252 256 262 271 199 223 214 200 203 185 186 217 232 230 225 225 229 221 232 246 234 235 233 225 242 252 258 257 246 243 253 256 257 260 266 269 269 276 286 288
303 299 297 292 282 274 273 273 273 267 257 255 255 253 253 253 253 245 229 103 175 180 188 175 138 195 207 191 208 219 217 220 218 233 240 245 249 241 250 255 259 258 254 254 255 255 255 263 265 261 265 273 280 276
304 301 298 293 288 280 271 266 263 262 255 249 247 249 252 242 236 240 235 206 187 195 180 169 176 220 180 210 207 203 218 235 228 229 226 224 228 228 236 247 246 256 247 250 253 254 257 254 259 264 266 273 268 273
304 302 301 295 286 279 272 263 256 255 252 246 234 215 213 222 224 176 174 195 213 204 203 184 160 172 172 189 198 182 202 233 238 221 211 229 242 250 251 252 253 255 259 261 256 255 252 256 255 262 262 265 272 269
305 304 299 292 288 279 270 264 259 244 237 233 202 209 203 162 157 175 192 191 176 194 199 204 207 202 214 194 229 191 233 268 243 236 206 237 251 248 249 249 252 254 254 257 256 254 255 257 260 258 264 267 271 273
303 298 295 291 287 280 273 265 265 220 222 217 213 183 155 174 164 180 192 192 189 204 178 176 201 198 171 179 150 180 209 192 245 46 226 263 247 250 254 250 250 253 254 255 259 260 263 263 262 258 259 262 261 261
312 309 302 293 286 281 270 262 251 248 203 196 197 174 182 166 181 187 188 214 194 177 171 164 165 172 159 193 189 177 208 215 115 189 236 250 296 284 271 266 260 261 262 260 264 266 270 272 274 269 267 270 265 263
324 316 306 299 293 282 273 258 236 210 171 150 163 178 185 189 219 200 199 192 196 180 170 168 130 164 165 176 199 211 200 140 205 231 245 272 270 291 287 283 266 262 262 266 273 277 277 276 279 277 271 271 270 266
332 331 330 321 307 284 249 223 201 175 125 134 147 216 194 212 216 202 209 183 187 187 150 137 133 154 158 206 204 97 128 222 212 239 265 321 313 306 312 320 305 286 277 275 274 273 281 288 285 279 273 270 267 266
343 342 4 344 6 40 155 168 167 142 117 149 172 134 186 142 270 199 194 209 185 172 159 163 151 179 203 195 172 214 189 227 246 173 302 321 323 322 319 313 319 312 305 296 290 288 286 289 287 286 281 271 267 264
352 349 354 5 40 101 123 119 103 86 136 121 250 200 173 203 203 216 233 232 187 159 168 181 190 197 103 185 216 197 219 344 333 312 315 326 326 318 315 320 320 312 308 309 306 303 301 299 300 298 293 292 279 265
337 352 8 94 51 59 78 45 86 114 107 159 155 184 221 262 18 298 275 225 175 203 184 196 138 183 190 179 225 0 18 333 316 317 321 328 325 329 324 318 317 322 317 310 310 313 311 300 295 308 315 312 294 268
320 342 315 186 52 13 20 25 32 94 239 91 220 234 323 317 313 307 287 270 212 210 168 167 209 108 62 33 7 359 345 344 318 322 323 335 329 324 326 328 329 326 326 327 326 321 320 314 308 322 326 316 301 283
312 318 328 245 245 338 100 51 31 62 150 85 303 350 161 108 83 35 65 112 112 51 44 37 40 33 345 324 330 328 323 324 324 325 322 322 338 337 343 344 344 339 333 334 334 332 326 315 312 322 323 322 308 295
316 319 353 222 165 70 73 26 50 42 352 51 2 63 98 90 60 38 28 25 62 38 41 29 355 332 345 5 341 322 324 330 329 318 323 326 342 338 341 342 345 350 348 344 340 342 343 335 326 317 319 333 319 303
301 309 305 42 42 80 87 31 331 336 341 324 48 41 47 58 64 47 50 49 54 23 356 337 336 336 352 352 339 337 338 336 356 359 8 3 351 349 350 350 347 351 356 355 349 347 346 342 333 329 315 323 325 318
298 289 77 30 133 46 35 359 64 14 43 358 5 75 35 38 56 82 73 65 77 10 359 360 6 11 2 343 344 340 348 345 347 357 6 13 14 4 359 358 356 353 354 357 355 352 348 347 344 335 327 317 319 320
57 47 27 35 18 3 338 12 15 11 27 26 11 63 34 10 5 63 81 73 54 1 19 21 32 50 48 37 26 10 0 358 358 8 8 6 9 14 12 9 4 4 1 357 357 357 356 354 352 346 336 326 324 316
67 14 19 359 13 11 19 358 349 27 34 344 22 9 0 345 75 60 66 353 1 4 11 20 28 25 13 18 23 25 16 4 1 4 9 1 360 9 15 22 23 13 4 2 3 1 2 0 359 353 342 333 324 314
63 13 30 342 335 35 342 0 5 351 358 1 350 308 335 42 62 85 22 343 340 347 356 1 4 7 15 7 8 14 14 16 13 17 15 3 8 8 7 9 10 13 12 7 359 355 353 356 356 358 348 334 329 319
46 337 349 11 322 318 296 320 313 42 29 12 339 333 2 67 48 256 306 353 348 345 350 350 353 349 353 3 13 19 17 13 8 15 23 16 9 10 10 11 8 7 9 6 2 358 351 348 350 355 346 337 329 323
65 25 346 320 343 1 314 8 32 21 351 344 338 9 21 142 212 324 336 352 1 1 354 350 354 358 3 6 1 2 13 26 27 19 338 11 12 11 10 15 13 11 13 15 7 1 355 354 348 346 345 341 333 318
0 341 343 338 325 328 15 74 347 25 348 316 186 284 303 296 333 3 8 18 17 15 15 17 10 4 14 16 1 1 5 8 11 16 14 5 5 9 12 11 10 9 9 11 16 11 4 359 355 354 351 344 339 328
348 347 340 351 27 278 319 348 325 313 307 264 262 279 271 263 72 51 51 30 20 23 21 12 5 7 9 6 17 21 17 13 10 10 358 353 352 356 1 5 7 6 7 7 4 4 10 14 12 9 11 7 358 348
335 340 311 284 255 273 307 322 322 315 302 265 226 249 266 268 218 16 60 47 42 36 29 25 22 17 12 8 6 7 5 4 3 357 350 346 349 352 355 357 360 2 3 3 2 0 359 5 9 9 8 9 6 0
331 8 342 308 286 304 324 338 324 314 288 280 220 222 211 212 232 167 121 75 56 49 38 30 24 20 15 10 7 2 355 350 348 347 345 345 347 348 350 352 355 356 356 357 358 357 0 2 2 3 4 4 3 360
314 331 308 299 303 316 339 352 348 342 298 310 358 248 208 234 240 187 177 90 52 43 33 24 19 13 7 3 355 350 346 342 341 341 337 338 339 341 344 345 348 349 349 351 353 352 355 358 360 0 360 360 1 2
Wind_Speed_850mb
60 60 60 59 61 64 64 65 65 63 61 57 60 66 69 77 74 77 89 89 90 52 70 27 35 51 25 43 20 10 13 17 15 15 8 10 11 16 10 10 20 21 21 14 15 15 28 29 20 17 8 12 11 26
60 58 59 60 62 59 61 64 65 65 62 58 62 69 68 71 76 72 91 86 98 66 28 51 88 87 70 52 36 31 22 11 30 13 14 7 9 6 18 26 7 15 24 14 24 17 14 35 11 41 22 20 40 50
64 63 65 65 63 65 65 65 65 66 67 60 63 64 62 65 71 71 76 69 92 78 56 59 74 53 45 49 63 35 28 41 36 31 11 7 15 8 22 24 9 16 16 18 17 40 38 34 43 55 60 72 83 72
69 64 63 68 65 63 64 62 60 57 56 56 59 60 60 57 60 60 70 65 94 38 20 27 47 65 71 70 64 74 75 55 43 41 37 20 21 28 24 19 23 22 29 23 18 40 35 48 52 56 67 70 62 72
66 67 70 63 63 61 62 57 51 50 53 53 56 53 59 52 53 69 77 74 89 76 12 20 35 44 49 48 51 43 57 67 60 37 17 20 21 21 20 12 30 43 32 21 29 32 33 40 51 55 40 54 63 68
63 66 66 65 60 58 57 55 47 47 42 40 45 39 35 32 36 43 52 76 102 97 21 9 17 27 49 40 45 53 53 60 64 49 29 54 62 21 12 22 40 72 71 69 48 60 45 55 63 67 69 88 81 75
67 67 64 63 62 58 56 54 53 45 42 35 31 32 33 32 35 19 9 21 63 94 29 6 6 18 35 38 44 45 57 42 45 45 33 59 34 50 34 46 45 55 55 58 74 74 51 73 70 77 78 96 96 96
68 67 65 58 56 55 56 55 51 45 45 41 38 36 35 32 35 31 18 17 50 51 11 5 6 2 29 17 16 36 29 39 34 33 33 23 45 40 32 41 67 80 84 76 83 89 86 95 85 85 91 103 110 101
67 67 65 61 57 53 50 52 49 44 40 41 41 40 35 40 32 50 28 32 36 24 8 10 11 5 21 19 21 18 25 12 22 15 20 18 13 20 20 45 71 57 66 73 79 85 85 87 101 100 99 100 95 106
70 74 68 62 59 58 57 56 52 48 42 37 33 21 17 28 41 15 20 20 24 25 23 8 16 9 26 20 14 7 17 10 9 13 14 12 27 63 74 76 75 78 85 77 70 71 75 78 88 101 100 91 100 101
79 75 70 67 65 62 60 60 59 53 43 43 25 26 17 32 30 19 13 15 14 11 19 27 44 15 28 10 11 17 3 3 7 11 12 12 20 31 78 89 95 95 95 101 106 100 93 86 83 80 86 99 105 107
78 71 62 59 54 54 54 57 55 65 64 49 27 20 35 19 11 9 8 5 8 12 11 12 27 44 18 17 6 10 9 4 13 3 4 7 33 68 73 79 85 93 98 100 103 99 103 111 113 103 98 106 97 95
50 50 55 56 57 54 54 51 47 45 74 47 18 21 16 14 11 17 16 8 7 9 21 19 9 23 14 20 5 9 16 12 9 7 9 28 25 39 59 73 88 91 98 78 81 90 96 103 104 103 104 102 100 98
54 58 56 41 41 44 44 41 40 41 67 17 14 12 10 10 9 10 13 16 14 22 45 34 14 8 12 11 6 10 6 4 7 10 32 6 19 34 41 63 77 83 82 72 66 66 81 80 78 84 91 93 93 94
66 49 31 41 61 71 56 39 39 71 13 11 12 10 10 7 7 6 15 12 27 32 48 16 10 11 6 8 7 6 4 11 18 33 16 5 29 36 31 30 33 39 47 55 59 64 63 59 64 70 67 71 75 78
56 22 33 46 54 16 39 58 82 37 11 15 9 5 3 4 3 6 18 18 32 44 37 16 8 9 10 7 10 16 11 11 9 3 13 26 37 41 41 48 38 34 31 34 38 45 51 49 48 53 57 64 69 72
46 28 24 29 35 49 65 61 25 9 7 7 2 7 9 6 10 6 8 14 34 42 11 6 14 15 6 7 8 10 10 2 6 27 29 30 41 44 47 48 43 43 45 42 39 39 39 40 42 49 59 56 53 59
37 37 5 6 12 20 20 11 9 6 5 5 5 4 9 5 4 7 8 13 27 17 18 8 14 10 10 12 7 2 7 22 21 26 36 39 31 28 44 54 52 49 51 50 45 41 36 37 39 40 42 38 37 37
32 38 14 7 4 6 6 8 6 5 1 1 2 3 2 3 11 19 27 23 31 12 11 11 4 2 3 5 6 14 21 22 27 49 49 31 27 45 48 47 46 46 51 50 44 41 37 33 37 33 36 34 30 26
24 25 20 17 9 2 4 5 5 2 3 0 1 0 1 2 5 17 17 14 14 10 12 9 7 7 10 16 20 20 22 31 40 45 42 37 42 43 41 46 50 49 48 46 39 35 35 29 25 30 31 30 30 25
21 13 18 19 6 6 8 7 5 4 4 1 3 2 3 11 12 14 16 17 18 10 6 11 16 28 14 12 10 19 24 28 29 26 40 57 47 39 41 44 48 48 47 46 47 43 38 36 37 32 29 25 28 27
12 7 1 8 7 6 7 11 4 7 4 1 4 6 6 4 5 9 9 23 11 11 13 23 32 24 16 21 23 22 22 17 16 21 34 41 43 44 45 43 47 51 49 45 45 47 45 40 35 29 27 22 26 26
4 1 4 10 5 7 3 14 2 12 4 5 2 4 5 4 7 7 7 10 9 21 25 30 23 13 12 19 13 10 16 16 18 23 34 45 43 39 38 36 37 45 51 46 41 43 42 38 34 31 26 24 19 21
8 10 17 15 26 7 15 15 10 12 9 8 7 5 6 5 10 7 6 6 4 22 27 28 26 21 20 23 25 22 25 22 18 17 31 42 49 48 41 35 33 40 44 44 42 41 40 38 36 31 26 22 19 18
7 24 18 15 23 16 14 13 12 10 7 7 7 7 6 12 5 6 3 6 13 26 31 28 27 26 27 34 38 35 34 31 27 26 28 37 44 52 51 45 38 46 47 49 49 47 44 40 38 35 30 24 20 17
17 19 14 8 10 9 6 10 12 7 5 10 6 12 11 4 7 3 0 12 14 20 29 30 31 30 27 28 38 47 46 33 24 24 26 28 36 51 61 59 61 57 53 52 53 52 47 45 41 38 32 25 19 14
13 9 16 18 12 13 7 7 5 5 8 9 7 10 7 7 4 1 3 15 16 19 20 20 21 22 27 24 26 34 39 34 24 18 24 25 25 37 56 57 60 58 56 52 49 48 49 49 46 41 35 25 19 14
8 14 10 34 14 10 5 5 7 8 7 16 9 7 3 2 1 3 3 13 17 18 19 17 17 18 21 19 25 30 34 35 22 13 9 24 24 38 50 49 51 52 52 52 51 47 42 41 42 39 34 26 20 15
9 31 23 8 8 7 6 4 3 7 17 9 1 5 3 2 3 2 4 9 15 17 17 17 16 13 14 19 23 23 32 43 44 44 46 51 55 52 50 50 54 56 57 56 51 46 40 36 36 35 30 23 16 12
14 33 11 7 4 5 2 8 17 40 26 14 12 10 8 4 1 5 8 11 16 23 26 29 30 29 29 31 29 23 29 41 45 49 51 53 55 56 56 54 54 54 55 59 59 56 48 43 33 31 32 30 22 13
18 14 7 4 8 8 18 47 38 29 14 5 16 15 9 4 6 3 9 16 21 24 28 32 31 31 35 39 36 33 34 38 40 39 42 44 46 49 51 52 54 56 57 55 54 53 55 54 51 46 39 34 29 21
14 11 6 6 11 17 31 25 17 8 5 3 5 6 5 7 6 6 18 27 35 40 45 46 46 39 35 40 30 35 46 47 46 45 46 47 47 48 48 49 51 54 55 53 51 49 47 47 48 47 43 37 32 28
10 10 8 11 12 12 17 30 14 18 7 5 4 2 5 4 7 13 19 7 23 41 51 56 58 53 44 47 37 40 48 49 49 48 47 47 48 49 49 48 50 51 52 53 51 50 48 45 43 41 40 35 30 27
Wind_Direction_850mb
297 287 290 294 296 294 287 284 277 272 263 260 260 260 257 248 244 245 225 225 215 228 243 223 219 228 211 215 221 151 169 189 179 219 220 197 222 207 203 162 170 170 176 198 213 222 259 191 136 207 238 211 304 320
298 291 290 291 292 295 292 287 281 270 265 264 266 263 258 253 241 243 249 225 218 212 239 231 247 249 245 239 248 209 226 167 206 206 207 217 212 181 236 245 142 223 215 212 200 218 245 194 225 217 276 277 299 297
296 292 289 287 289 289 293 292 280 270 263 264 266 260 259 257 240 239 241 233 201 213 235 241 237 230 231 232 240 238 241 232 237 235 252 224 236 179 233 240 209 237 226 226 207 243 244 244 251 253 269 269 283 284
293 291 290 287 286 286 288 292 279 274 264 262 261 261 258 252 249 242 241 242 206 206 219 241 230 230 241 241 245 244 246 249 248 249 237 237 243 199 248 259 218 221 168 219 246 255 270 267 257 261 265 282 284 292
292 290 287 287 286 284 286 291 280 272 271 260 260 256 255 246 247 239 237 244 219 200 197 221 222 220 226 228 234 236 237 239 243 242 242 250 244 244 239 242 235 221 229 222 242 250 240 256 265 262 271 289 294 296
299 295 294 288 285 281 280 282 277 275 274 259 251 247 251 253 263 263 238 242 236 209 217 189 203 214 218 227 238 238 238 232 233 245 246 245 243 230 241 250 246 239 240 246 249 261 252 261 270 267 280 280 293 298
301 298 295 290 284 280 275 277 282 268 268 261 252 251 252 256 262 271 199 223 214 200 203 185 186 217 232 230 225 225 229 221 232 246 234 235 233 225 242 252 258 257 246 243 253 256 257 260 266 269 269 276 286 288
303 299 297 292 282 274 273 273 273 267 257 255 255 253 253 253 253 245 229 103 175 180 188 175 138 195 207 191 208 219 217 220 218 233 240 245 249 241 250 255 259 258 254 254 255 255 255 263 265 261 265 273 280 276
304 301 298 293 288 280 271 266 263 262 255 249 247 249 252 242 236 240 235 206 187 195 180 169 176 220 180 210 207 203 218 235 228 229 226 224 228 228 236 247 246 256 247 250 253 254 257 254 259 264 266 273 268 273
304 302 301 295 286 279 272 263 256 255 252 246 234 215 213 222 224 176 174 195 213 204 203 184 160 172 172 189 198 182 202 233 238 221 211 229 242 250 251 252 253 255 259 261 256 255 252 256 255 262 262 265 272 269
305 304 299 292 288 279 270 264 259 244 237 233 202 209 203 162 157 175 192 191 176 194 199 204 207 202 214 194 229 191 233 268 243 236 206 237 251 248 249 249 252 254 254 257 256 254 255 257 260 258 264 267 271 273
303 298 295 291 287 280 273 265 265 220 222 217 213 183 155 174 164 180 192 192 189 204 178 176 201 198 171 179 150 180 209 192 245 46 226 263 247 250 254 250 250 253 254 255 259 260 263 263 262 258 259 262 261 261
312 309 302 293 286 281 270 262 251 248 203 196 197 174 182 166 181 187 188 214 194 177 171 164 165 172 159 193 189 177 208 215 115 189 236 250 296 284 271 266 260 261 262 260 264 266 270 272 274 269 267 270 265 263
324 316 306 299 293 282 273 258 236 210 171 150 163 178 185 189 219 200 199 192 196 180 170 168 130 164 165 176 199 211 200 140 205 231 245 272 270 291 287 283 266 262 262 266 273 277 277 276 279 277 271 271 270 266
332 331 330 321 307 284 249 223 201 175 125 134 147 216 194 212 216 202 209 183 187 187 150 137 133 154 158 206 204 97 128 222 212 239 265 321 313 306 312 320 305 286 277 275 274 273 281 288 285 279 273 270 267 266
343 342 4 344 6 40 155 168 167 142 117 149 172 134 186 142 270 199 194 209 185 172 159 163 151 179 203 195 172 214 189 227 246 173 302 321 323 322 319 313 319 312 305 296 290 288 286 289 287 286 281 271 267 264
352 349 354 5 40 101 123 119 103 86 136 121 250 200 173 203 203 216 233 232 187 159 168 181 190 197 103 185 216 197 219 344 333 312 315 326 326 318 315 320 320 312 308 309 306 303 301 299 300 298 293 292 279 265
337 352 8 94 51 59 78 45 86 114 107 159 155 184 221 262 18 298 275 225 175 203 184 196 138 183 190 179 225 0 18 333 316 317 321 328 325 329 324 318 317 322 317 310 310 313 311 300 295 308 315 312 294 268
320 342 315 186 52 13 20 25 32 94 239 91 220 234 323 317 313 307 287 270 212 210 168 167 209 108 62 33 7 359 345 344 318 322 323 335 329 324 326 328 329 326 326 327 326 321 320 314 308 322 326 316 301 283
312 318 328 245 245 338 100 51 31 62 150 85 303 350 161 108 83 35 65 112 112 51 44 37 40 33 345 324 330 328 323 324 324 325 322 322 338 337 343 344 344 339 333 334 334 332 326 315 312 322 323 322 308 295
316 319 353 222 165 70 73 26 50 42 352 51 2 63 98 90 60 38 28 25 62 38 41 29 355 332 345 5 341 322 324 330 329 318 323 326 342 338 341 342 345 350 348 344 340 342 343 335 326 317 319 333 319 303
301 309 305 42 42 80 87 31 331 336 341 324 48 41 47 58 64 47 50 49 54 23 356 337 336 336 352 352 339 337 338 336 356 359 8 3 351 349 350 350 347 351 356 355 349 347 346 342 333 329 315 323 325 318
298 289 77 30 133 46 35 359 64 14 43 358 5 75 35 38 56 82 73 65 77 10 359 360 6 11 2 343 344 340 348 345 347 357 6 13 14 4 359 358 356 353 354 357 355 352 348 347 344 335 327 317 319 320
57 47 27 35 18 3 338 12 15 11 27 26 11 63 34 10 5 63 81 73 54 1 19 21 32 50 48 37 26 10 0 358 358 8 8 6 9 14 12 9 4 4 1 357 357 357 356 354 352 346 336 326 324 316
67 14 19 359 13 11 19 358 349 27 34 344 22 9 0 345 75 60 66 353 1 4 11 20 28 25 13 18 23 25 16 4 1 4 9 1 360 9 15 22 23 13 4 2 3 1 2 0 359 353 342 333 324 314
63 13 30 342 335 35 342 0 5 351 358 1 350 308 335 42 62 85 22 343 340 347 356 1 4 7 15 7 8 14 14 16 13 17 15 3 8 8 7 9 10 13 12 7 359 355 353 356 356 358 348 334 329 319
46 337 349 11 322 318 296 320 313 42 29 12 339 333 2 67 48 256 306 353 348 345 350 350 353 349 353 3 13 19 17 13 8 15 23 16 9 10 10 11 8 7 9 6 2 358 351 348 350 355 346 337 329 323
65 25 346 320 343 1 314 8 32 21 351 344 338 9 21 142 212 324 336 352 1 1 354 350 354 358 3 6 1 2 13 26 27 19 338 11 12 11 10 15 13 11 13 15 7 1 355 354 348 346 345 341 333 318
0 341 343 338 325 328 15 74 347 25 348 316 186 284 303 296 333 3 8 18 17 15 15 17 10 4 14 16 1 1 5 8 11 16 14 5 5 9 12 11 10 9 9 11 16 11 4 359 355 354 351 344 339 328
348 347 340 351 27 278 319 348 325 313 307 264 262 279 271 263 72 51 51 30 20 23 21 12 5 7 9 6 17 21 17 13 10 10 358 353 352 356 1 5 7 6 7 7 4 4 10 14 12 9 11 7 358 348
335 340 311 284 255 273 307 322 322 315 302 265 226 249 266 268 218 16 60 47 42 36 29 25 22 17 12 8 6 7 5 4 3 357 350 346 349 352 355 357 360 2 3 3 2 0 359 5 9 9 8 9 6 0
331 8 342 308 286 304 324 338 324 314 288 280 220 222 211 212 232 167 121 75 56 49 38 30 24 20 15 10 7 2 355 350 348 347 345 345 347 348 350 352 355 356 356 357 358 357 0 2 2 3 4 4 3 360
314 331 308 299 303 316 339 352 348 342 298 310 358 248 208 234 240 187 177 90 52 43 33 24 19 13 7 3 355 350 346 342 341 341 337 338 339 341 344 345 348 349 349 351 353 352 355 358 360 0 360 360 1 2